AQI (31)

Current Conditions for Foresthill, CA. Sunny, Dry   
Visibility: 10 miles
Foresthill Advisory text: Warning Description: Special Statement Warning Date: 11:55 am PST on November 25, 2014

  Summary / Temperature 

Current Temperature
51.2°F
10.7°C
(24/hr Ago)
47.6°F
(Apparent temp)
46.5°F
Cool
Wind Chill Graphs
46.8°F 

51.2°F/ 10.7°C
 --- Virtual Temp: 53.0°F ---

 Temp Rate:

 24/hr Difference:

 Avg Running Temp:

 Todays High:

 Todays Low:

 Y-days High:

 Y-days Low:

 Todays WChill:

 Y-days WChill:

 Evapotranspiration:

+0.6°F/hr 

+3.6°F

50.3°F

51.6°F 3:16am

48.5°F 6:53am

59.2°F 1:16pm

44.0°F 3:50am

42.9°F 7:04am

37.2°F 4:00am

0.013 in

115' Above Ground

 Temperature:

 6'AGL VRS 115'AGL:

 Avg Running Temp:

 Humidity:

 Todays High:

 Todays Low:

 Y-days High:

 Y-days Low:

58.0°F 

+6.8°F

56.6°F

42% 

58.0°F 8:38am

54.0°F 5:36am

67.0°F 11:18am

48.0°F 1:33am

Temp & Humidity Graphs

  Wind 

Wind Speed

 6.0 mph

Gusting to

 12.0 mph

Wind from SE

128°  SE

Light breeze

 Avg speed:

 Wind Run:

 Peak Gust:

  5.0 mph 

30.0 miles

  20.0 mph 4:20am

  Almanac  

Moon age: 4 days,0 hours,59 minutes,18%

Waxing Crescent
21%
Illuminated
4 days in cycle

 Moonrise:

 Moonset:

 Sunrise:

 Sunset:

 Solar Noon:

10:34am

9:19pm

6:58am

4:42pm

11:50am

1min 30s less daylight tomorrow 

  Solar Radiation 

(Current Solar)
  334 W/m2 (111%)
(Todays High)
 329 W/m2@9:04am
Feels like: 54°F in the sun

Rain

 Rain Today:

 Rain Rate (/hr):

 Rain last hour:

 Rain Yesterday:

 This Month:

 Season Total:

2 Days Since Last Rain Day

0.00 in

0.000 in

0.00 in

0.00 in

4.11 in

8.36 in

Updated Time

Updated: 11/26/14  9:05am

(Updated  sec ago)

Humidity & Barometer

 Humidity:

 Wetbulb:

 Dew Point:

 Barometer:

70% 

46.7°F 

41.7°F 

30.382 inHg 

 Baro Trend:  Steady 
Northern Calif
Preparedness
Fire 
Level 

    UV Index  

(Current UV)
0.9  Low
(Todays High) @ 9:00am
0.9   Low

Weather Underground 5 day Forecast

Wed Thu Fri Sat Sun
Clear Partly Cloudy Mostly Cloudy Chance Rain Chance Rain
Clear Partly Cloudy Mostly Cloudy Chance Rain Chance Rain
68 64 57 46 46
52 48 45 43 43

Foresthill Probe 2 Stats  
Foresthill Probe 2: is located on Thomas Street
at 3000 feet. The main Foresthill Weather site
is located on Melody ln at the 2860 foot elevation

Calm
54.5°F
12.5°C
Temp Rate:
+2.3°F
Calm
Gusting to
4.0 mph
(Humidity)
57%
Wind from ENE
71°  ENE
Updated: 26/11/14 - 09:04:36
 Todays High: 54.6°F 09:02
 Todays Low: 47.7°F 05:58
 Rain Today: 0.00 in
 Season Total: 7.71 in

Foresthill Wx: Monthly,Yearly, Highs and Lows 

Foresthill  
This Weather Data is coming from the main Foresthill
Weather site located on Melody ln at the 2860 foot
elevation
Not Foresthill Probe 2
Weather Data
Month
  High
Month
  Low
Year
High
Year
Low
Temp 70.8F
11/9/14
36.3F
11/23/14
96.4F
7/14/14
32.0F
2/4/14
Humidity 100%
11/2/14
33%
11/18/14
100%
3/1/14
9%
10/12/14
Heat Index 71.0F
11/8/14
41.1F
11/16/14
95.0F
7/14/14
35.5F
2/5/14
Wind Chill 70.8F
11/9/14
28.6F
11/2/14
96.4F
7/14/14
21.6F
2/5/14
Wind Gust 29 mph
11/19/14
0 mph
11/1/14
40 mph
3/12/14
0 mph
1/1/14
Barometer 30.55 in
11/25/14
29.70 in
11/1/14
30.55 in
11/25/14
29.47 in
2/28/14
ET 0.11 in
11/9/14
0.00 in
11/1/14
0.27 in
7/4/14
0.00 in
1/1/14
Dew Point 54.0F
11/8/14
22.2F
11/16/14
64.6F
8/4/14
5.1F
1/4/14
Infrared Satellite Regional Radar Satellite Imagery Sacramento,CA.  (click to enlarge)
NWS Weather Forecast - Outlook: Today and Tonight
Today

Sunny
Sunny

Hi 67 °F
NWS forecast: Sunny, with a high near 67. Light and variable wind.
Tonight

Partly Cloudy
Partly
Cloudy
Lo 48 °F
NWS forecast: Partly cloudy, with a low around 48. East wind around 6 mph.
NWS Weather Forecast - Summary
Updated: Wednesday, November 26, 2014 - 3:52am (PST)
YR.NO 10 Day Weather forecast
Last update: 11/25/2014 @ 23:04
Next update: 11/26/2014 @ 12:00
Provided by: 22
      Temperature Precipitation Pressure Wind  
Today
11/26/2014
10:00 13:00 59°F   30.28 inHg Light air from east-northeast 3 mph
  13:00 19:00 68°F   30.23 inHg Light air from southwest 2 mph
  19:00 01:00 54°F   30.19 inHg Light air from east 3 mph
    (Click to enlarge)
meteogram

    Forecast for next 9 days

      Temperature Precip Pressure Wind  
Thursday
11/27/2014
01:00 07:00 39°F   30.20 inHg Light breeze from east-northeast 4 mph
  07:00 13:00 41°F   30.17 inHg Light breeze from east-northeast 4 mph
  13:00 19:00 64°F   30.11 inHg Light breeze from southwest 4 mph
  19:00 01:00 46°F   30.05 inHg Light breeze from east 4 mph
      Temperature Precip Pressure Wind  
Friday
11/28/2014
01:00 07:00 37°F   30.04 inHg Light breeze from east 5 mph
  07:00 13:00 36°F   29.98 inHg Light breeze from east 5 mph
  10:00 16:00 52°F   29.99 inHg Light air from southwest 3 mph
  16:00 22:00 48°F 0.07 in 29.94 inHg Light air from southwest 3 mph
  22:00 04:00 43°F 0.07 in 29.89 inHg Light breeze from east-northeast 4 mph
      Temperature Precip Pressure Wind  
Saturday
11/29/2014
04:00 10:00 43°F 0.82 in 29.87 inHg Light air from east 2 mph
  10:00 16:00 41°F 0.25 in 29.91 inHg Light breeze from east-southeast 5 mph
  16:00 22:00 45°F 0.26 in 29.82 inHg Light breeze from southeast 6 mph
  22:00 04:00 43°F 0.59 in 29.81 inHg Light breeze from east 4 mph
      Temperature Precip Pressure Wind  
Sunday
11/30/2014
04:00 10:00 39°F 0.44 in 29.88 inHg Light breeze from east 5 mph
  10:00 16:00 41°F 0.29 in 30.01 inHg Light breeze from east 4 mph
  16:00 22:00 43°F 0.07 in 30.06 inHg Light air from east 3 mph
  22:00 04:00 41°F   30.11 inHg Light air from east-northeast 3 mph
      Temperature Precip Pressure Wind  
Monday
12/01/2014
04:00 10:00 36°F   30.11 inHg Light breeze from east-northeast 4 mph
  10:00 16:00 48°F   30.16 inHg Light air from east-northeast 2 mph
  16:00 22:00 52°F   30.09 inHg Light air from west-northwest 2 mph
  22:00 04:00 39°F   30.08 inHg Light breeze from east-northeast 5 mph
      Temperature Precip Pressure Wind  
Tuesday
12/02/2014
04:00 10:00 37°F   30.00 inHg Light breeze from east-northeast 5 mph
  10:00 16:00 50°F 0.02 in 29.93 inHg Light breeze from east 4 mph
  16:00 22:00 50°F 0.22 in 29.83 inHg Light breeze from east-northeast 4 mph
  22:00 04:00 45°F 0.32 in 29.85 inHg Light breeze from east-northeast 5 mph
      Temperature Precip Pressure Wind  
Wednesday
12/03/2014
04:00 10:00 45°F 0.54 in 29.74 inHg Light air from east-northeast 2 mph
  10:00 16:00 48°F 0.61 in 29.75 inHg Light breeze from south-southeast 7 mph
  16:00 22:00 46°F 0.18 in 29.86 inHg Light breeze from south-southeast 5 mph
  22:00 04:00 45°F 0.09 in 30.00 inHg Light breeze from southeast 4 mph
      Temperature Precip Pressure Wind  
Thursday
12/04/2014
04:00 10:00 45°F < 0.01 in 30.01 inHg Light breeze from east-southeast 4 mph
  10:00 16:00 48°F < 0.01 in 30.07 inHg Light breeze from southeast 4 mph
  16:00 22:00 50°F   30.02 inHg Light air from south-southwest 2 mph
  22:00 04:00 41°F 0.02 in 30.05 inHg Light breeze from east 5 mph
      Temperature Precip Pressure Wind  
Friday
12/05/2014
04:00 10:00 41°F 0.03 in 30.06 inHg Light breeze from east-southeast 4 mph
  10:00 16:00 50°F 0.04 in 30.12 inHg Light breeze from south 7 mph

Weather History For Wednesday, November 26, 2014


On this Day - In Weather History ...
Data courtesy of weatherforyou.com
powered by Cumulus v1.9.3 (1059)
Ambient Weather VWS v14.00
Top Contact Website Map Copyright © 2007 - 2014 Foresthillweather.com Never base important decisions on this or any weather information obtained from the Internet